Location: Laterina
(43.5167°N, 11.7167°E)
Time: 13:58:03
(UTC+00:00)

Cosmos 2026 Rocket - Pass Details

Date: 26 January 2021
Orbit: 940 x 1000 km, 82.9° (Epoch: 28 February)

Event Time Altitude Azimuth Distance (km) Brightness Sun altitude
Rises 03:08:15 0° 7° (N) 3,717 7.2 -37.5°
Reaches altitude 10° 03:12:08 10° 30° (NNE) 2,771 6.7 -36.8°
Maximum altitude 03:15:35 15° 63° (ENE) 2,429 6.7 -36.1°
Drops below altitude 10° 03:19:01 10° 96° (E) 2,770 7.1 -35.5°
Sets 03:22:52 0° 119° (ESE) 3,714 7.7 -34.8°
